TimeMDT,TemperatureF,Dew PointF,Humidity,Sea Level PressureIn,VisibilityMPH,Wind Direction,Wind SpeedMPH,Gust SpeedMPH,PrecipitationIn,Events,Conditions,WindDirDegrees,DateUTC
12:01 AM,30.2,21.2,69,30.24,10.0,North,16.1,19.6,N/A,,Overcast,10,2013-04-23 06:01:00
12:50 AM,28.4,21.2,74,30.22,10.0,NNE,15.0,-,0.00,,Overcast,20,2013-04-23 06:50:00
12:53 AM,28.9,21.0,72,30.18,10.0,NNE,17.3,23.0,0.00,,Overcast,20,2013-04-23 06:53:00
1:13 AM,28.4,19.4,69,30.24,10.0,North,16.1,23.0,N/A,,Overcast,360,2013-04-23 07:13:00
1:53 AM,28.0,21.9,78,30.20,4.0,North,11.5,-,0.00,Snow,Light Snow,10,2013-04-23 07:53:00
2:13 AM,26.6,21.2,80,30.24,2.5,NNE,11.5,-,0.00,Snow,Light Snow,20,2013-04-23 08:13:00
2:33 AM,26.6,23.0,86,30.23,1.2,NNE,11.5,-,0.00,Snow,Light Snow,20,2013-04-23 08:33:00
2:42 AM,26.6,23.0,86,30.23,1.0,NNE,8.1,-,0.01,Snow,Light Snow,20,2013-04-23 08:42:00
2:47 AM,26.6,23.0,86,30.23,1.2,North,15.0,20.7,0.01,Snow,Light Snow,10,2013-04-23 08:47:00
2:53 AM,26.1,21.9,84,30.22,1.5,North,13.8,-,0.01,Snow,Light Snow,10,2013-04-23 08:53:00
3:21 AM,26.6,23.0,86,30.22,1.2,NNE,9.2,-,0.00,Snow,Light Snow,30,2013-04-23 09:21:00
3:39 AM,26.6,21.2,80,30.22,1.8,NNE,10.4,-,0.01,Snow,Light Snow,30,2013-04-23 09:39:00
4:17 AM,24.8,23.0,93,30.22,1.0,NE,6.9,-,0.01,Snow,Light Snow,40,2013-04-23 10:17:00
4:33 AM,24.8,21.2,86,30.22,1.2,NNE,5.8,-,0.02,Snow,Light Snow,30,2013-04-23 10:33:00
4:39 AM,24.8,21.2,86,30.21,2.0,NE,10.4,-,0.02,Snow,Light Snow,40,2013-04-23 10:39:00
4:47 AM,24.8,21.2,86,30.22,5.0,NE,8.1,-,0.02,Snow,Light Snow,40,2013-04-23 10:47:00
4:48 AM,25.0,21.9,88,30.27,5.0,NE,8.1,-,0.02,Snow,Light Snow,40,2013-04-23 10:48:00
4:57 AM,24.8,21.2,86,30.21,7.0,NNE,6.9,-,0.00,,Overcast,30,2013-04-23 10:57:00
5:35 AM,26.6,21.2,80,30.24,10.0,North,8.1,-,0.00,,Overcast,10,2013-04-23 11:35:00
5:53 AM,26.1,21.0,81,30.29,10.0,North,10.4,-,0.00,,Overcast,360,2013-04-23 11:53:00
6:40 AM,24.8,21.2,86,30.23,4.0,NNE,13.8,-,N/A,,Overcast,20,2013-04-23 12:40:00
6:53 AM,25.0,21.9,88,30.30,4.0,NNE,12.7,-,N/A,,Overcast,30,2013-04-23 12:53:00
7:03 AM,24.8,21.2,86,30.24,2.5,NNE,15.0,-,0.00,Snow,Light Snow,20,2013-04-23 13:03:00
7:15 AM,24.8,19.4,80,30.25,4.0,NNE,10.4,-,0.00,,Overcast,20,2013-04-23 13:15:00
7:26 AM,24.8,17.6,74,30.25,8.0,NNE,13.8,-,0.00,,Overcast,20,2013-04-23 13:26:00
7:53 AM,24.1,17.1,75,30.31,9.0,NNE,17.3,-,0.00,,Overcast,30,2013-04-23 13:53:00
8:53 AM,25.0,18.0,75,30.32,9.0,NNE,11.5,-,N/A,,Overcast,20,2013-04-23 14:53:00
9:48 AM,26.6,17.6,69,30.26,9.0,North,15.0,-,N/A,,Overcast,10,2013-04-23 15:48:00
9:53 AM,26.1,17.1,69,30.32,9.0,NNE,11.5,-,N/A,,Overcast,30,2013-04-23 15:53:00
10:53 AM,27.0,19.0,72,30.32,9.0,NNE,13.8,-,N/A,,Overcast,20,2013-04-23 16:53:00
11:53 AM,28.0,19.9,72,30.32,9.0,North,11.5,-,N/A,,Overcast,10,2013-04-23 17:53:00
12:53 PM,28.0,21.0,75,30.30,4.0,NNE,8.1,-,0.00,Snow,Light Snow,20,2013-04-23 18:53:00
1:30 PM,28.4,23.0,80,30.22,4.0,NNE,9.2,-,0.00,Snow,Light Snow,20,2013-04-23 19:30:00
1:38 PM,28.4,21.2,74,30.22,3.0,NNE,8.1,-,0.00,Snow,Light Snow,30,2013-04-23 19:38:00
1:45 PM,28.4,21.2,74,30.22,2.0,NNE,6.9,-,0.00,Snow,Light Snow,20,2013-04-23 19:45:00
1:53 PM,28.0,21.9,78,30.29,1.2,North,6.9,-,0.00,Snow,Light Snow,360,2013-04-23 19:53:00
1:58 PM,28.4,23.0,80,30.23,0.8,North,5.8,-,0.00,Snow,Light Snow,360,2013-04-23 19:58:00
2:07 PM,26.6,23.0,86,30.22,0.5,North,5.8,-,0.00,Fog-Snow,Snow,10,2013-04-23 20:07:00
2:39 PM,26.6,23.0,86,30.21,1.0,North,6.9,-,0.01,Snow,Light Snow,360,2013-04-23 20:39:00
2:50 PM,26.6,24.8,93,30.21,1.0,NNW,4.6,-,0.01,Snow,Light Snow,330,2013-04-23 20:50:00
2:53 PM,27.0,24.1,89,30.28,1.2,Calm,Calm,-,0.01,Snow,Light Snow,0,2013-04-23 20:53:00
3:06 PM,28.4,24.8,86,30.20,1.8,NNW,5.8,-,0.00,Snow,Light Snow,330,2013-04-23 21:06:00
3:18 PM,30.2,24.8,80,30.21,3.0,NNW,4.6,-,0.00,Snow,Light Snow,330,2013-04-23 21:18:00
3:53 PM,30.0,24.1,79,30.26,6.0,North,8.1,-,0.00,,Haze,10,2013-04-23 21:53:00
4:53 PM,32.0,23.0,69,30.24,10.0,NNW,8.1,-,N/A,,Overcast,330,2013-04-23 22:53:00
5:28 PM,32.0,23.0,69,30.18,10.0,NNW,8.1,-,N/A,,Overcast,340,2013-04-23 23:28:00
5:53 PM,33.1,23.0,66,30.24,10.0,NNW,6.9,-,N/A,,Overcast,330,2013-04-23 23:53:00
6:53 PM,32.0,21.9,66,30.26,10.0,NNW,6.9,-,N/A,,Scattered Clouds,340,2013-04-24 00:53:00
7:53 PM,30.9,23.0,72,30.28,10.0,WNW,3.5,-,N/A,,Clear,300,2013-04-24 01:53:00
8:53 PM,28.0,23.0,81,30.32,10.0,WSW,6.9,-,N/A,,Clear,250,2013-04-24 02:53:00
9:53 PM,28.0,24.1,85,30.33,10.0,West,6.9,-,N/A,,Partly Cloudy,260,2013-04-24 03:53:00
10:53 PM,28.0,24.1,85,30.32,10.0,WSW,10.4,-,N/A,,Clear,250,2013-04-24 04:53:00
11:53 PM,26.1,21.9,84,30.30,10.0,WSW,5.8,-,N/A,,Clear,240,2013-04-24 05:53:00